Change the Weather History Date:

Saturday, May 31, 2014

  Actual Average Record
Temperature  
Mean Temperature 72 °F 65 °F  
Max Temperature 82 °F 79 °F 95 °F (1984)
Min Temperature 61 °F 52 °F 32 °F (1922)
Degree Days  
Heating Degree Days 0 3  
Month to date heating degree days 218 201  
Cooling Degree Days 7 3  
Month to date cooling degree days 60 43  
Year to date cooling degree days 61 44  
Growing Degree Days 21 (Base 50)    
Moisture  
Dew Point 60 °F    
Average Humidity 73    
Maximum Humidity 100    
Minimum Humidity 45    
Precipitation  
Precipitation 0.01 in 0.13 in 2.88 in (1935)
Sea Level Pressure  
Sea Level Pressure 29.95 in    
Wind  
Wind Speed 6 mph (SSE)    
Max Wind Speed 15 mph    
Max Gust Speed 24 mph    
Visibility 10 miles    
Events Rain , Thunderstorm    
T = Trace of Precipitation, MM = Missing Value Source: NWS Daily Summary

Daily Weather History Graph

Daily Weather History Graph

Search for Another Location

Airport or City:

Trip Planner

Search our weather history database for the weather conditions in past years. The results will help you decide how hot, cold, wet, or windy it might be!

Date:

Astronomy

May. 31, 2014 Rise Set
Actual Time 5:18 AM MDT 8:10 PM MDT
Civil Twilight 4:46 AM MDT 8:42 PM MDT
Nautical Twilight 4:05 AM MDT 9:23 PM MDT
Astronomical Twilight 3:18 AM MDT 10:10 PM MDT
Moon 7:57 AM MDT (5/31) 10:29 PM MDT (5/31)
Length of Visible Light 15h 56m
Length of Day
14h 51m
Waxing Crescent, 9% of the Moon is Illuminated
May 31
Waxing Crescent
Jun 5
First Quarter
Jun 12
Full
Jun 19
Last Quarter
Jun 27
New

Hourly Weather History & Observations

Time (MDT) Temp. Heat Index Dew Point Humidity Pressure Visibility Wind Dir Wind Speed Gust Speed Precip Events Conditions
12:53 AM 62.1 °F - 60.1 °F 93% 29.98 in 7.0 mi East 6.9 mph - 0.22 in Rain Light Rain
1:53 AM 62.1 °F - 60.1 °F 93% 29.98 in 10.0 mi Calm Calm - 0.01 in Rain Light Rain
2:53 AM 62.6 °F - 59.0 °F 88% 30.07 in 10.0 mi East 5.8 mph - N/A Rain Light Rain
3:20 AM 62.1 °F - 59.0 °F 90% 30.07 in 10.0 mi SE 6.9 mph - 0.00 in   Overcast
3:29 AM 62.1 °F - 59.0 °F 90% 30.08 in 10.0 mi SSE 6.9 mph - 0.00 in Rain Light Rain
3:53 AM 62.1 °F - 60.1 °F 93% 29.97 in 10.0 mi ESE 5.8 mph - 0.00 in   Overcast
4:11 AM 62.1 °F - 59.0 °F 90% 30.06 in 10.0 mi East 6.9 mph - 0.00 in Rain Light Rain
4:53 AM 62.1 °F - 60.1 °F 93% 29.97 in 10.0 mi ESE 3.5 mph - 0.00 in   Overcast
5:53 AM 61.0 °F - 60.1 °F 97% 29.98 in 10.0 mi SSE 3.5 mph - N/A   Overcast
6:16 AM 62.1 °F - 60.1 °F 93% 30.06 in 10.0 mi SSE 3.5 mph - N/A   Overcast
6:51 AM 62.6 °F - 60.8 °F 94% 30.06 in 10.0 mi Calm Calm - N/A   Overcast
6:53 AM 63.0 °F - 61.0 °F 93% 29.99 in 10.0 mi Calm Calm - N/A   Overcast
7:53 AM 63.0 °F - 61.0 °F 93% 29.99 in 10.0 mi Calm Calm - N/A   Overcast
8:35 AM 64.9 °F - 62.1 °F 90% 30.04 in 10.0 mi South 4.6 mph - N/A   Overcast
8:53 AM 66.2 °F - 62.6 °F 88% 30.04 in 10.0 mi SSW 6.9 mph - N/A   Overcast
9:53 AM 66.9 °F - 61.0 °F 81% 29.98 in 10.0 mi WSW 6.9 mph - N/A   Overcast
10:53 AM 72.0 °F - 62.1 °F 71% 29.97 in 10.0 mi WSW 8.1 mph - N/A   Scattered Clouds
11:19 AM 71.1 °F - 61.0 °F 70% 30.02 in 10.0 mi South 3.5 mph - N/A   Mostly Cloudy
11:27 AM 73.0 °F - 61.0 °F 66% 30.02 in 10.0 mi SSW 6.9 mph - N/A   Scattered Clouds
11:53 AM 73.9 °F - 61.0 °F 64% 29.95 in 10.0 mi WSW 5.8 mph - N/A   Mostly Cloudy
12:53 PM 75.9 °F - 61.0 °F 60% 29.92 in 10.0 mi South 10.4 mph - N/A   Scattered Clouds
1:53 PM 79.0 °F - 60.1 °F 52% 29.89 in 10.0 mi SW 11.5 mph - N/A   Partly Cloudy
2:53 PM 80.1 °F 81.2 °F 62.1 °F 54% 29.87 in 10.0 mi South 11.5 mph - N/A   Partly Cloudy
3:53 PM 81.0 °F 81.3 °F 59.0 °F 47% 29.85 in 10.0 mi SSW 8.1 mph - N/A   Partly Cloudy
4:53 PM 81.0 °F 81.1 °F 57.9 °F 45% 29.83 in 10.0 mi WSW 6.9 mph - N/A   Clear
5:53 PM 81.0 °F 81.0 °F 57.0 °F 44% 29.82 in 10.0 mi Calm Calm - N/A   Clear
6:53 PM 81.0 °F 81.1 °F 57.9 °F 45% 29.81 in 10.0 mi SSW 6.9 mph - N/A Thunderstorm Thunderstorm
7:07 PM 81.0 °F 81.1 °F 57.9 °F 45% 29.89 in 10.0 mi South 5.8 mph - N/A   Clear
7:53 PM 73.0 °F - 62.1 °F 68% 29.81 in 10.0 mi SE 5.8 mph - N/A   Clear
8:53 PM 71.1 °F - 62.1 °F 73% 29.81 in 10.0 mi ESE 4.6 mph - N/A   Partly Cloudy
9:53 PM 69.1 °F - 62.1 °F 78% 29.82 in 10.0 mi ESE 5.8 mph - N/A   Clear
10:53 PM 66.9 °F - 62.1 °F 84% 29.84 in 10.0 mi SE 4.6 mph - N/A   Clear
11:53 PM 64.9 °F - 60.1 °F 84% 29.82 in 10.0 mi SE 5.8 mph - N/A   Clear